Notices

What's New in latest Release from April 7th, 2021:

- Updated Glossary, including Speed of Maximum Gust, and Total Hourly Precipitation

- Updated national and regional climate services offices contacts and prices information

- Addition of station inventory lists for 1981-2010, 1971-2000, and 1961-1990 Normals.

If you haven't already, please take our survey and provide feedback about our website: https://eccc.sondage-survey.ca/f/LanguageSelection.aspx?s=442ca660-fcf1-47c0-95a9-59707d6fd709

Hourly Data Report for April 07, 2016

MIRAMICHI RCS
NEW BRUNSWICK

47°00'34.000" N
65°27'54.000" W
33.00 m
8100989
71744
ACQ

Download Data

Hourly Data (April 2016)
Hourly Data Report for April 7, 2016
TIME
LST
Temp Definition
°C
Dew Point Definition
°C
Rel Hum Definition
%
Precip. Amount Definition
mm

Wind Dir Definition
10's deg

Wind Spd Definition
km/h
Visibility Definition
km
Stn Press Definition
kPa
Hmdx Definition


Wind Chill Definition


Weather Definition


00:00 -0.7 -6.3 66 0.0 22 28   101.54   -7 LegendNANA
01:00 -1.3 -5.4 74 0.0 22 23   101.54   -7 LegendNANA
02:00 -2.2 -3.9 88 0.0 20 14   101.51   -7 LegendNANA
03:00 -2.4 -3.6 91 0.0 18 10   101.44   -6 LegendNANA
04:00 -2.2 -3.1 93 0.5 16 10   101.35   -6 LegendNANA
05:00 -1.3 -2.3 93 0.2 18 14   101.32   -6 LegendNANA
06:00 -0.8 -1.8 93 0.2 19 14   101.32   -5 LegendNANA
07:00 -0.5 -1.5 93 0.5 16 9   101.29   -4 LegendNANA
08:00 -0.2 -1.2 93 0.9 14 10   101.28   -4 LegendNANA
09:00 0.3 -0.7 93 0.7 13 8   101.22     LegendNANA
10:00 0.7 -0.4 93 0.4 9 6   101.16     LegendNANA
11:00 1.0 0.0 93 0.0 7 8   101.07     LegendNANA
12:00 1.4 0.3 93 0.2 7 8   100.99     LegendNANA
13:00 2.7 1.7 94 0.3 5 5   100.92     LegendNANA
14:00 2.7 1.8 93 0.0 11 5   100.87     LegendNANA
15:00 8.8 6.7 87 0.0 20 25   100.82     LegendNANA
16:00 9.5 7.1 85 0.0 20 24   100.77     LegendNANA
17:00 10.0 6.9 81 0.0 20 28   100.77     LegendNANA
18:00 9.8 6.6 80 0.0 20 18   100.79     LegendNANA
19:00 10.7 6.8 77 0.0 18 24   100.76     LegendNANA
20:00 10.0 6.1 77 0.0 16 17   100.72     LegendNANA
21:00 10.1 6.2 77 0.0 17 22   100.60     LegendNANA
22:00 9.9 6.2 78 0.0 16 26   100.49     LegendNANA
23:00 9.7 6.0 78 0.0 16 27   100.36     LegendNANA

Notes on Data Quality.

Legend

  • E = Estimated
  • M = Missing
  • NA = Not Available*
  • [empty] = Indicates an unobserved value
Date modified: